Home   Weather   Knoxville   Past weeks

Flag for USA Past Weather in Knoxville, Tennessee, USA — Yesterday and Last 2 Weeks

Now
75 °F

Passing clouds.


Feels Like: 77 °F
Forecast: 69 / 85 °F
Wind: 10 mph from South

Location: McGhee Tyson Airport

Current Time: Apr 30, 2017 at 3:10:38 am

Latest Report: Apr 30, 2017 at 1:53 am


Visibility: 10 mi

Pressure: 30.00 "Hg

Humidity: 64%

Dew Point: 62 °F

Location of KnoxvilleLocation

Past Weather in Knoxville — Graph

°F

Knoxville Temperature Yesterday

Maximum temperature yesterday: 89 °F (at 4:53 pm)
Minimum temperature yesterday: 64 °F (at 5:53 am)
Average temperature yesterday: 78 °F

High & Low Weather Summary for the Past Weeks

 TemperatureHumidityPressure
High89 °F (Apr 29, 4:53 pm)97% (Apr 17, 11:53 pm)30.31 "Hg (Apr 17, 11:53 pm)
Low52 °F (Apr 24, 6:53 am)25% (Apr 15, 5:53 pm)29.65 "Hg (Apr 26, 7:53 pm)
Average67 °F75%29.95 "Hg
* Reported Apr 15 1:53 am — Apr 30 1:53 am, Knoxville, Weather by CustomWeather, © 2017

Note: Actual official high and low records may vary slightly from our data, if they occured in-between our weather recording intervals... More about our weather records

Advertising

Knoxville Weather History for the Previous 24 Hours

Scroll right to see more
 ConditionsComfort  
Time TempWeatherWind HumidityBarometerVisibility
1:53 am
Sun, Apr 30
75 °FPassing clouds.10 mph64%30.00 "Hg10 mi
12:53 am75 °FPassing clouds.9 mph64%30.01 "Hg10 mi
11:53 pm
Sat, Apr 29
78 °FPassing clouds.8 mph56%30.02 "Hg10 mi
10:53 pm78 °FPassing clouds.10 mph54%30.01 "Hg10 mi
9:53 pm80 °FOvercast.8 mph51%30.01 "Hg10 mi
8:53 pm80 °FPassing clouds.9 mph49%30.00 "Hg10 mi
7:53 pm82 °FPartly sunny.8 mph46%29.97 "Hg10 mi
6:53 pm84 °FScattered clouds.10 mph46%29.98 "Hg10 mi
5:53 pm88 °FScattered clouds.10 mph40%29.97 "Hg10 mi
4:53 pm89 °FScattered clouds.16 mph38%29.98 "Hg10 mi
3:53 pm88 °FBroken clouds.14 mph43%30.01 "Hg10 mi
2:53 pm88 °FBroken clouds.17 mph45%30.02 "Hg10 mi
1:53 pm87 °FPartly sunny.18 mph46%30.03 "Hg10 mi
12:53 pm86 °FHigh level clouds.16 mph49%30.05 "Hg10 mi
11:53 am84 °FMore clouds than sun.13 mph53%30.07 "Hg10 mi
10:53 am79 °FMore clouds than sun.No wind62%30.08 "Hg10 mi
9:53 am76 °FBroken clouds.5 mph72%30.07 "Hg10 mi
8:53 am70 °FBroken clouds.No wind79%30.07 "Hg10 mi
7:53 am66 °FBroken clouds.No wind87%30.06 "Hg8 mi
6:53 am65 °FScattered clouds.5 mph91%30.05 "Hg10 mi
5:53 am64 °FClear.6 mph90%30.04 "Hg9 mi
4:53 am65 °FClear.5 mph87%30.02 "Hg10 mi
3:53 am70 °FClear.No wind76%30.00 "Hg10 mi
Weather by CustomWeather, © 2017

See weather overviewHow to use our weather pages